Weather past 2 weeks in Saipan, Northern Mariana Islands

Now
80 °F

Passing clouds.


Feels Like: 85 °F
Forecast: 74 / 80 °F
Wind: No wind

Location: Saipan International Airport

Current Time: Oct 21, 2014 at 8:34:51 PM

Latest Report: Oct 21, 2014 at 7:54 PM


Visibility: 10 mi

Pressure: 29.89 "Hg

Humidity: 85%

Dew point: 75 °F

Location of SaipanLocation

Historic Weather in Saipan — Graph

°F

Saipan temperature yesterday

Maximum temperature yesterday: 89 °F (at 2:54 PM)
Minimum temperature yesterday: 79 °F (at 5:54 AM)
Average temperature yesterday: 82 °F

Past Weeks' High & Low Weather Summary

 TemperatureHumidityPressure
High89 °F (Oct 20, 2:54 PM)94% (Oct 6, 7:02 PM)29.99 "Hg (Oct 6, 7:02 PM)
Low75 °F (Oct 6, 7:02 PM)61% (Oct 20, 12:54 PM)29.73 "Hg (Oct 7, 3:04 AM)
Average82 °F84%29.90 "Hg
* Reported Oct 6 7:02 PM — Oct 21 6:54 PM, Saipan, Weather by CustomWeather, © 2014

Note: Actual official high and low records may vary slightly from our data, if they occured in-between our weather recording intervals... More about our weather records

Advertising

Saipan weather history for previous 24 hours

 ConditionsComfort  
Time TempWeatherWind HumidityBarometerVisibility
6:54 PM
Oct 21
81 °FClear.No wind83%29.87 "Hg10 mi
5:54 PM85 °FPassing clouds.5 mph73%29.86 "Hg10 mi
4:54 PM84 °FBroken clouds.5 mph75%29.85 "Hg10 mi
3:54 PM84 °FPassing clouds.7 mph75%29.84 "Hg10 mi
2:54 PM85 °FScattered clouds.8 mph73%29.84 "Hg10 mi
1:54 PM84 °FMostly cloudy.8 mph80%29.85 "Hg10 mi
12:54 PM84 °FPartly sunny.3 mph75%29.88 "Hg10 mi
11:54 AM89 °FScattered clouds.5 mph68%29.90 "Hg10 mi
10:54 AM88 °FSunny.6 mphN/A29.92 "Hg10 mi
9:54 AM88 °FPassing clouds.8 mph61%29.94 "Hg10 mi
8:54 AM86 °FSunny.8 mph67%29.93 "Hg10 mi
7:54 AM84 °FSunny.5 mph74%29.93 "Hg10 mi
6:54 AM80 °FSunny.3 mph81%29.90 "Hg10 mi
5:54 AM78 °FClear.5 mph87%29.88 "Hg10 mi
4:54 AM78 °FPassing clouds.5 mph87%29.87 "Hg10 mi
3:54 AM77 °FClear.5 mph88%29.88 "Hg10 mi
2:54 AM79 °FClear.6 mph82%29.88 "Hg10 mi
1:54 AM78 °FClear.5 mph84%29.89 "Hg10 mi
12:54 AM79 °FClear.5 mph82%29.90 "Hg10 mi
11:54 PM
Oct 20
80 °FPassing clouds.6 mph81%29.91 "Hg10 mi
10:54 PM80 °FPassing clouds.6 mph81%29.85 "Hg10 mi
9:54 PM80 °FClear.7 mph81%29.92 "Hg10 mi
8:54 PM80 °FPassing clouds.6 mph85%29.92 "Hg10 mi
Weather by CustomWeather, © 2014

See weather overviewHow to use our weather pages